User: anonymous   Login
Location: Unspecified
(0.0000°N, 0.0000°E)
Time: 06:14:58
(UTC+01:00)
Language:

Ariane H10 - Orbit

View from above orbital plane
View from above orbital plane
View from above satellite
View from above satellite

Ground track
Ground track

The orbit data is extracted from the following two-line orbital elements,

1 19122U 88040B   15086.66080140  .00001689  00000-0  94556-2 0  9995
2 19122 007.2107 140.1704 7151496 212.9907 297.0446 02.32945307177972
Epoch (UTC): 27 March 2015 15:51:33
Eccentricity: 0.7151496
inclination: 7.2107°
perigee height: 469 km
apogee height: 34850 km
right ascension of ascending node: 140.1704°
argument of perigee: 212.9907°
revolutions per day: 2.32945307
mean anomaly at epoch: 297.0446°
orbit number at epoch: 17797

The dashed part of the orbit path shows where the satellite is in the earth's shadow,  

DLR